Find Starlink 3502

NORAD ID: 51746 Int'l Des: 2022-016 Owner: SPXS Country: US Constellation: starlink operational
LEOCIRCULAR

Live Position

Loading 3D Globe...

About Starlink 3502

Description loading...

Upcoming Passes

Passes for default location (London). Set your location on the main map for personalized predictions.

Altitude History

Loading altitude history...

Two-Line Element Set

1 51746U 22016AJ 26106.27468958 .00000100 00000-0 24389-4 0 9999
2 51746 53.2174 140.4070 0001228 86.5558 273.5575 15.08838836229370
Epoch: Apr 16, 2026 • Age: 10 hours

Current Status

Altitude 541.7 km
Velocity 7.60 km/s
Sub-Earth Point 34.75°N, 168.26°W
Launch Date Feb 21, 2022
Age 4.1 years
Type internet

Technical Details

Classification Payload
Mass 297.00 kg
Dry Mass 275.00 kg
Total Mass 297.00 kg
Length 0.20 m
Diameter 2.80 m
Span 9.00 m
Shape Box + pan
Manufacturer SPXS
Bus Type Starlink
Phase Status In Orbit
Owner/State SPXS/US

Most Searched